Terminal Aerodrome Forecast
Issued by NWS Sterling, VA

Current Version | Previous Version | Graphics & Text | Print | Product List | Glossary On
Versions: 1 2 3 4 5 6 7 8 9 10 11 12 13 14 15 16 17 18 19 20 21 22 23
000
FTUS41 KLWX 221137
TAFIAD
TAF
KIAD 221137Z 2212/2318 VRB03KT 3SM -SHRA SCT003 OVC008
      TEMPO 2212/2213 BKN003
     FM221300 VRB03KT 3SM -SHRA OVC003
     FM221800 18005KT P6SM BKN020
     FM222000 20005KT P6SM BKN035
     FM230200 30004KT P6SM SCT070
     FM230500 VRB03KT P6SM BKN120
     FM230900 35005KT P6SM SCT110
     FM231600 05006KT P6SM OVC070=

USA.gov is the U.S. government's official web portal to all federal, state and local government web resources and services.